This demonstration page uses our WeatherBlox Daily Observations layout. Learn more.

Left ArrowRight Arrow

39.29038, -76.61219

Hourly Observations for March 22, 2018

Temp ( °F °C ) Dew Point ( °F °C ) Humidity (%) Winds ( mph kmh ) Pressure ( in mb ) Visibility ( mi km ) Precip ( " mm )
12:54 am 00:54 undefined 36 2.2 30 -1.1 79 79 undefined N/A 29.81 1010 N/A 0.00 0.00
1:54 am 01:54 undefined 36 2.2 29 -1.7 76 76 undefined N/A 29.83 1010 N/A 0.00 0.00
2:54 am 02:54 undefined 37 2.8 26 -3.3 65 65 undefined N/A 29.83 1010 N/A 0.00 0.00
3:54 am 03:54 undefined 38 3.3 26 -3.3 62 62 undefined N/A 29.83 1010 N/A 0.00 0.00
4:54 am 04:54 undefined 38 3.3 23 -5 55 55 undefined N/A 29.83 1010 N/A 0.00 0.00
5:54 am 05:54 undefined 37 2.8 22 -5.6 54 54 undefined N/A 29.85 1011 N/A 0.00 0.00
6:54 am 06:54 undefined 36 2.2 21 -6.1 55 55 undefined N/A 29.87 1012 N/A 0.00 0.00
7:54 am 07:54 undefined 35 1.7 22 -5.6 59 59 undefined N/A 29.91 1013 N/A 0.00 0.00
8:54 am 08:54 undefined 37 2.8 22 -5.6 54 54 undefined N/A 29.96 1015 N/A 0.00 0.00
9:54 am 09:54 undefined 39 3.9 21 -6.1 48 48 undefined N/A 29.97 1015 N/A 0.00 0.00
10:54 am 10:54 undefined 41 5 21 -6.1 45 45 undefined N/A 29.99 1016 N/A 0.00 0.00
11:54 am 11:54 undefined 42 5.6 21 -6.1 43 43 undefined N/A 29.99 1016 N/A 0.00 0.00
12:54 pm 12:54 undefined 44 6.7 21 -6.1 40 40 undefined N/A 29.98 1015 N/A 0.00 0.00
1:54 pm 13:54 undefined 46 7.8 23 -5 40 40 undefined N/A 29.98 1015 N/A 0.00 0.00
2:54 pm 14:54 undefined 47 8.3 22 -5.6 37 37 undefined N/A 29.99 1016 N/A 0.00 0.00
3:54 pm 15:54 undefined 47 8.3 20 -6.7 34 34 undefined N/A 29.97 1015 N/A 0.00 0.00
4:54 pm 16:54 undefined 48 8.9 18 -7.8 30 30 undefined N/A 29.96 1015 N/A 0.00 0.00
5:54 pm 17:54 undefined 47 8.3 18 -7.8 31 31 undefined N/A 29.96 1015 N/A 0.00 0.00
6:54 pm 18:54 undefined 46 7.8 18 -7.8 32 32 undefined N/A 30.00 1016 N/A 0.00 0.00
7:54 pm 19:54 undefined 45 7.2 20 -6.7 37 37 undefined N/A 30.01 1016 N/A 0.00 0.00
8:54 pm 20:54 undefined 44 6.7 20 -6.7 38 38 undefined N/A 30.04 1017 N/A 0.00 0.00
9:54 pm 21:54 undefined 43 6.1 20 -6.7 40 40 undefined N/A 30.05 1018 N/A 0.00 0.00
10:54 pm 22:54 undefined 43 6.1 19 -7.2 38 38 undefined N/A 30.07 1018 N/A 0.00 0.00
11:54 pm 23:54 undefined 42 5.6 19 -7.2 40 40 undefined N/A 30.09 1019 N/A 0.00 0.00

Powered by AerisWeather